Theta_e
318 318 319 321 320 323 326 324 319 320 319 312 314 315 317 321 321 322 321 320 318 316 314 314 315 316 318 319 320 320 319 320 320 318 318 326 323 319 322 322 319 324 326 330 336 338 338 338 339 339 340 339 340 340 339 340 339 339 339 339 336 334 337 338 338 339 339 339 340 340 339 339 339 339 338 338 338 338 339 338 339 339 339 340 341 341 341 340 340 339 338 337 335 333 331 330 329
319 321 322 323 322 323 325 323 317 316 314 309 313 315 317 321 321 321 320 319 319 316 313 314 315 316 316 317 317 319 320 320 321 321 322 322 322 322 322 321 320 323 327 330 336 338 340 339 338 339 340 339 340 340 340 340 340 339 339 339 337 337 339 339 339 339 339 340 340 340 339 340 339 339 338 339 339 338 338 338 339 339 339 340 340 340 340 339 339 338 337 337 335 333 331 330 329
321 323 324 324 324 324 324 322 316 313 312 309 311 316 318 319 320 319 319 318 317 313 313 315 315 316 316 317 318 319 320 319 319 319 322 320 324 327 322 322 319 324 328 329 337 339 341 340 338 340 339 340 340 340 340 340 340 340 339 338 337 338 339 339 339 339 339 339 340 340 340 340 340 340 339 339 338 338 338 337 338 338 339 340 340 339 338 338 337 337 336 335 334 333 331 329 327
322 323 324 325 325 324 323 321 317 313 310 309 310 317 319 318 319 318 318 317 315 312 314 317 316 316 316 319 319 318 319 319 320 320 323 322 326 328 323 323 319 325 329 328 336 338 340 339 338 339 339 340 340 340 340 339 339 339 339 337 337 338 339 339 338 338 339 339 340 340 340 340 339 339 338 338 337 337 337 337 337 338 338 338 339 338 337 336 336 335 335 334 334 332 329 326 326
321 321 322 325 325 323 322 320 320 314 311 311 310 315 319 317 318 318 318 317 315 313 314 317 318 317 315 317 318 318 320 319 321 319 323 323 322 325 324 324 320 325 330 330 336 338 339 339 338 339 339 340 339 340 339 339 339 339 339 338 338 338 338 338 337 339 339 340 340 340 340 339 338 338 337 336 336 335 336 336 336 336 336 337 337 336 335 335 335 334 334 334 333 330 327 324 323
321 320 320 323 322 321 321 318 316 315 315 316 313 316 318 317 318 317 317 317 314 312 313 316 317 316 315 317 317 319 321 319 321 319 322 322 320 323 324 324 321 325 331 333 336 338 338 339 339 339 340 339 339 340 339 339 339 339 339 338 338 337 338 338 338 339 339 340 339 340 339 338 338 337 336 335 334 333 334 334 334 334 334 335 335 334 333 333 333 333 333 332 330 327 324 321 319
323 323 321 320 320 320 319 316 314 316 318 318 316 317 317 317 318 316 317 317 315 313 313 314 314 315 317 316 316 318 318 317 321 320 320 321 320 322 325 325 322 326 332 334 335 337 338 338 338 339 340 340 340 340 339 339 339 339 338 338 338 337 338 338 338 339 339 340 339 339 338 337 337 336 336 335 333 332 332 333 332 332 332 332 332 332 331 331 330 329 329 327 325 322 318 315 312
322 322 321 320 320 320 318 316 317 318 318 317 318 317 317 317 318 316 317 317 317 316 314 314 313 315 317 313 316 318 315 315 318 318 318 320 320 321 325 325 324 327 331 333 334 336 337 338 338 339 339 339 340 339 339 338 339 338 337 337 337 337 337 337 338 339 339 339 338 338 337 337 336 335 335 334 333 331 331 332 332 331 331 330 330 330 330 329 327 326 324 322 319 315 310 307 304
319 320 320 320 318 318 316 316 317 318 318 317 318 317 318 317 316 316 317 318 317 316 315 314 314 316 317 314 317 318 316 315 314 315 316 318 319 321 325 325 325 326 330 332 333 335 336 337 337 338 339 339 339 339 339 338 338 337 336 337 338 337 337 337 337 338 338 338 338 337 337 336 335 334 333 332 331 330 329 330 330 329 328 329 328 328 328 327 325 322 319 315 311 306 303 301 300
319 319 320 320 317 314 313 314 316 317 318 317 316 316 317 316 316 316 317 318 317 316 314 312 313 315 317 315 317 319 318 315 313 315 315 317 318 321 326 326 326 325 327 331 332 334 335 336 337 338 338 337 338 338 337 337 338 337 337 337 337 337 337 337 337 338 337 337 337 336 335 334 334 333 331 330 329 328 328 328 328 327 327 327 326 327 327 325 322 318 312 307 303 300 299 299 299
320 319 319 318 314 311 311 313 315 318 317 317 317 316 316 316 315 316 316 317 316 316 314 311 314 315 316 316 318 318 315 313 314 316 315 316 317 320 326 326 327 326 326 330 331 333 334 336 336 337 337 337 337 337 337 336 336 337 337 336 336 337 337 337 336 337 337 336 336 334 334 333 332 331 329 327 327 326 326 327 326 326 326 326 325 326 324 320 317 312 306 301 299 299 299 299 299
319 320 319 316 314 313 314 315 316 319 319 319 319 316 315 314 315 317 317 317 316 316 315 314 315 316 316 317 319 317 313 313 314 315 315 316 317 320 325 327 328 327 327 330 332 333 334 335 336 336 337 337 337 337 336 335 335 335 336 335 335 336 335 336 335 334 335 335 333 332 331 331 330 328 327 327 326 325 325 326 325 325 325 324 325 324 320 315 311 306 301 299 299 299 299 299 299
319 321 318 315 317 317 317 316 317 319 319 320 318 314 312 314 317 317 317 317 315 316 316 315 314 315 317 318 319 317 316 315 313 313 315 316 317 319 324 327 327 328 329 331 332 333 334 335 335 336 336 335 336 336 335 334 333 334 335 333 334 333 333 334 332 331 332 332 331 330 329 329 328 327 326 326 325 325 325 325 324 325 324 324 324 321 316 311 306 301 299 298 299 298 298 298 298
320 321 318 317 318 319 318 317 319 318 316 318 316 312 311 315 316 315 316 317 316 317 314 313 314 315 316 317 318 318 317 313 312 313 315 316 317 318 323 326 327 328 329 329 331 333 334 335 334 335 335 335 335 335 334 333 334 334 334 333 333 332 330 331 331 330 329 329 329 329 328 328 327 326 326 325 325 324 324 324 323 324 323 323 320 316 312 307 301 299 298 298 298 298 298 298 298
319 320 319 319 319 318 318 318 319 317 316 317 315 311 312 314 314 314 315 316 316 314 311 312 313 315 317 317 317 319 315 311 312 314 315 316 316 318 322 325 327 328 328 328 330 332 333 334 334 334 334 334 334 334 333 332 333 335 334 333 332 331 330 329 330 329 328 328 328 328 327 327 326 326 325 324 324 323 323 322 322 321 321 320 316 312 308 303 299 298 298 298 298 298 298 298 298
318 320 319 319 318 317 318 318 318 316 317 318 313 310 314 314 312 313 313 313 315 313 311 313 312 314 316 317 317 316 312 311 313 314 315 316 317 319 321 324 326 327 328 329 330 331 332 333 333 333 333 333 334 333 333 332 331 333 334 333 332 330 329 329 329 328 328 328 327 327 327 327 326 325 324 323 322 322 320 318 318 319 319 317 313 309 303 299 298 298 298 298 298 298 298 298 299
316 319 319 317 316 316 317 318 317 316 317 317 313 311 315 315 311 311 310 309 313 314 313 313 313 313 314 316 316 313 311 312 312 314 317 319 320 320 321 323 325 326 328 329 329 330 330 331 331 331 331 332 333 333 333 332 331 331 331 331 331 330 329 328 328 328 327 327 326 326 326 326 325 324 323 322 322 320 318 315 315 318 319 318 312 305 300 298 297 297 298 298 298 298 299 299 299
318 320 318 316 317 318 318 318 317 315 316 316 315 313 314 316 313 312 311 311 313 313 314 313 313 313 314 315 313 311 311 312 313 317 320 322 323 323 323 323 324 326 327 328 329 329 329 329 329 330 330 331 332 332 332 332 331 329 327 328 330 329 329 328 328 328 327 326 326 326 325 325 324 324 323 322 321 320 317 314 314 317 320 317 309 303 299 297 297 297 298 298 298 299 299 300 300
319 320 318 317 319 318 317 317 316 315 316 316 315 312 312 314 314 312 312 315 314 314 315 315 314 314 314 315 313 311 311 312 314 317 322 323 324 324 325 324 324 325 326 327 327 328 329 329 329 329 329 329 329 329 329 330 329 327 327 329 329 328 328 328 327 327 326 326 325 325 325 324 324 323 321 320 319 319 317 313 314 317 318 314 306 301 298 296 297 297 297 298 298 299 299 300 300
319 318 318 318 320 318 315 315 315 315 314 315 315 312 311 312 313 312 313 315 315 315 316 316 316 315 316 315 314 313 312 314 315 317 320 321 323 324 325 326 325 324 325 326 326 327 327 328 328 328 328 328 327 327 327 327 327 327 328 328 328 328 328 327 327 327 326 325 325 324 324 323 322 322 318 315 315 317 316 314 314 316 316 311 304 300 297 296 297 297 297 297 298 299 299 299 299
318 317 319 319 318 317 316 315 314 314 312 313 314 313 313 312 311 311 313 314 315 316 316 316 316 316 316 316 316 315 314 314 315 316 318 319 321 322 323 324 324 323 323 325 326 325 326 327 327 327 327 326 326 326 325 326 326 327 327 327 327 327 327 327 326 326 325 325 324 323 323 321 320 320 315 312 315 317 317 315 315 316 315 311 303 299 297 297 297 297 297 297 298 299 298 299 299
317 317 319 319 316 316 317 315 314 313 311 311 312 313 314 312 310 312 313 314 316 316 316 317 316 316 316 315 316 316 315 314 315 316 317 318 319 320 321 322 323 322 322 323 324 323 324 325 325 325 325 325 325 325 325 325 326 326 327 326 326 327 327 326 326 326 325 324 324 323 322 320 319 318 315 313 316 317 317 317 317 316 314 308 301 299 297 297 297 296 297 297 298 299 298 298 298
317 318 318 318 316 316 317 315 314 311 311 313 313 314 313 312 313 313 313 314 315 316 316 316 316 316 316 314 314 314 314 315 316 316 317 317 318 318 318 319 320 321 321 320 321 322 323 323 325 324 323 324 324 325 325 325 324 325 326 325 325 326 326 325 325 325 325 324 324 322 320 319 318 317 315 313 313 314 314 315 314 313 310 304 299 298 297 297 296 296 297 298 298 298 298 298 298
316 317 316 316 316 316 316 315 313 312 312 314 313 313 313 314 315 314 313 314 314 315 315 315 316 316 315 312 312 312 313 315 316 316 316 316 317 317 317 317 318 318 319 319 319 321 321 322 323 324 323 322 323 324 325 325 324 324 325 325 324 325 325 325 325 324 325 324 324 322 319 318 317 316 314 312 310 310 311 310 308 307 305 302 298 297 296 296 296 296 297 298 298 298 298 298 298
315 316 316 315 314 314 315 313 312 312 312 313 312 313 314 315 314 313 312 313 314 314 315 314 315 315 313 311 311 312 312 314 315 315 316 315 314 315 316 316 317 317 317 317 318 318 319 320 321 323 323 322 322 323 323 324 324 324 324 324 322 322 322 324 323 324 324 324 323 321 318 316 315 314 312 310 308 307 307 305 304 304 303 300 298 297 296 296 296 297 297 298 298 298 298 298 297
315 316 316 315 314 314 313 311 312 312 312 312 312 313 315 314 312 312 313 313 314 314 314 314 314 313 312 311 311 311 311 312 314 314 315 314 313 314 314 314 315 315 315 315 316 316 317 318 319 321 322 322 321 321 322 323 323 323 323 323 321 319 320 322 322 323 323 323 323 320 316 315 313 311 309 308 307 305 305 303 303 303 301 299 298 297 296 296 296 297 298 298 298 297 297 297 296
312 313 313 313 313 312 311 311 311 311 311 311 312 313 314 312 310 313 314 313 313 313 313 313 313 312 311 311 311 311 311 311 313 313 313 313 313 313 312 313 314 313 313 314 314 315 316 316 317 318 321 322 321 321 321 321 322 322 322 322 320 318 318 320 321 322 323 323 322 318 314 313 312 309 307 306 305 304 304 303 303 302 300 299 297 296 296 296 296 297 298 298 297 297 296 296 295
309 309 311 312 312 312 310 310 310 310 310 310 311 312 313 312 310 312 314 312 311 311 312 312 312 312 312 311 311 311 311 311 312 312 312 313 314 313 313 313 313 312 313 313 313 314 314 315 316 316 318 320 321 321 320 321 321 320 321 320 319 318 317 319 320 321 323 323 322 318 313 312 311 309 307 304 303 303 303 302 302 301 300 298 297 296 296 296 296 297 297 297 297 296 296 295 295
308 309 311 312 312 312 312 312 310 310 310 309 309 311 312 312 311 312 313 312 311 310 311 312 312 312 312 312 312 311 311 312 311 311 311 311 312 313 313 312 311 312 312 312 312 313 313 313 314 315 316 318 319 320 320 320 320 320 320 319 319 318 318 319 317 319 321 322 322 317 314 312 310 309 307 304 302 302 301 301 301 300 299 298 296 296 295 296 296 296 296 296 296 295 295 295 294
309 309 310 311 312 312 312 312 309 308 309 308 309 310 312 313 313 313 313 311 310 310 311 311 312 312 312 312 311 311 312 312 312 311 311 311 311 312 312 312 311 311 311 311 312 311 312 312 313 314 315 316 317 319 320 320 320 320 319 319 319 317 318 318 316 317 319 320 320 317 314 312 309 308 306 304 303 301 300 299 299 298 298 297 296 296 295 295 295 295 296 295 295 294 294 294 293
310 310 310 311 312 313 312 310 307 308 309 308 309 310 311 313 314 314 312 310 309 310 310 311 311 312 312 312 311 311 312 313 313 312 311 311 310 310 310 310 310 310 310 311 311 311 311 311 312 312 313 314 315 317 319 319 319 319 318 318 318 318 317 316 316 317 318 319 319 317 315 312 309 307 305 304 302 300 299 298 297 297 297 296 295 295 295 295 295 295 295 295 294 293 293 293 292
310 310 312 313 312 312 313 311 309 310 309 306 309 311 311 313 313 313 311 308 308 309 310 311 311 311 311 311 311 311 311 312 313 312 311 310 309 309 308 309 308 309 309 309 310 310 310 310 311 311 312 313 314 315 316 318 319 318 318 318 317 317 316 315 315 316 317 318 318 317 315 312 310 307 304 303 302 300 299 297 296 296 296 296 295 295 294 294 294 295 294 294 293 293 293 292 292
312 311 313 314 313 312 313 312 311 310 309 307 308 310 312 312 313 313 311 309 309 309 310 311 311 311 311 311 311 311 311 311 312 312 311 311 310 309 308 308 308 308 308 308 309 309 310 310 310 310 310 311 312 313 315 316 317 317 318 317 317 317 316 315 315 315 316 317 317 316 314 312 310 307 305 304 302 299 298 297 296 296 296 295 295 294 294 294 294 294 294 294 293 293 292 292 291
313 313 313 313 313 312 311 312 312 309 308 309 309 309 310 311 312 312 311 311 310 310 310 311 311 311 311 312 311 311 311 311 311 312 311 310 310 309 308 308 308 307 308 308 308 308 309 309 309 309 309 310 310 312 313 314 315 316 316 316 316 316 316 316 315 315 315 316 316 316 314 312 310 307 305 304 302 299 297 296 296 296 296 295 294 294 293 293 294 294 294 293 293 293 292 292 291
314 314 314 313 312 311 311 312 312 310 309 310 309 309 310 310 310 311 311 311 310 310 310 311 311 311 311 312 312 312 312 312 311 311 311 311 311 310 309 308 307 307 307 307 307 307 308 308 308 308 308 308 309 310 311 312 313 314 314 315 315 315 315 315 314 314 314 315 315 315 314 312 310 308 305 303 302 299 296 296 295 296 295 295 294 293 293 293 294 294 293 293 292 292 292 292 291
314 313 313 312 312 311 311 311 311 310 309 310 310 310 311 311 311 311 311 311 311 311 311 311 311 311 312 312 312 313 313 312 312 312 311 310 310 309 309 308 307 306 306 306 307 307 307 308 308 308 307 308 308 308 309 311 312 312 312 312 312 313 313 313 313 313 313 314 314 315 314 312 310 308 305 303 301 298 296 295 295 295 295 294 293 293 293 293 294 293 293 293 292 291 291 292 291
311 312 312 312 312 312 312 312 311 309 308 310 310 311 311 311 311 311 311 311 311 311 311 311 312 312 312 312 313 314 312 312 313 312 312 311 309 308 307 307 306 306 306 305 305 306 306 307 308 307 307 307 307 307 308 309 311 311 311 311 311 311 311 311 311 311 311 312 313 313 313 312 310 308 306 304 301 298 296 295 295 295 295 294 293 293 293 293 294 293 292 292 291 291 290 291 290
311 312 312 313 313 313 312 312 312 309 308 310 310 310 311 311 311 311 311 311 311 311 312 312 312 312 313 313 314 313 312 312 313 313 313 312 310 307 306 306 305 306 306 305 305 305 306 306 307 307 307 306 306 306 306 308 309 310 310 310 310 309 309 309 308 308 309 310 310 311 311 310 309 308 306 304 301 297 295 295 295 295 295 294 293 292 293 293 293 293 292 291 291 291 291 290 290
311 312 312 313 313 313 312 311 310 308 308 310 311 310 310 310 311 311 311 311 311 311 312 312 312 313 313 313 312 311 312 313 313 312 312 312 310 308 307 306 305 305 305 305 304 304 305 305 306 306 307 306 306 306 305 306 307 308 308 308 308 308 307 307 307 307 307 307 307 307 308 308 307 307 306 304 300 297 295 295 295 295 295 294 293 292 292 293 293 292 292 292 291 291 292 290 289
311 312 313 313 313 314 313 311 309 307 308 310 310 310 311 312 312 312 312 311 311 312 311 312 313 313 313 312 311 310 311 313 313 312 311 311 311 309 308 307 305 304 305 305 304 304 304 305 305 306 306 306 305 305 305 305 305 306 306 306 306 306 305 305 305 305 305 305 305 305 305 305 305 305 304 303 300 297 295 295 295 295 295 294 293 292 292 292 292 292 292 292 291 292 292 291 289
313 313 313 313 313 313 312 311 310 309 310 309 309 312 313 314 315 314 313 311 311 312 312 312 313 312 312 311 310 311 312 312 312 311 310 310 310 310 309 307 306 305 305 304 303 303 303 304 304 305 305 305 305 304 304 304 304 304 304 304 304 304 304 303 303 303 303 303 303 303 303 303 303 303 302 302 300 297 295 295 295 295 295 294 293 292 292 292 292 292 292 292 291 292 292 291 290
314 314 313 312 312 312 312 313 311 311 313 310 310 314 315 314 315 315 314 314 314 315 314 313 313 312 311 311 311 311 312 311 310 310 309 309 309 309 308 307 306 305 303 302 302 302 302 303 303 304 304 304 304 304 304 304 304 304 303 303 303 303 303 303 302 302 302 302 302 302 302 302 302 302 301 300 299 297 295 295 295 295 294 294 294 293 292 292 292 292 292 292 292 292 293 292 291
313 315 314 311 311 312 312 313 312 312 314 310 309 313 315 314 314 314 315 314 315 316 315 314 313 311 310 311 311 311 311 311 311 309 308 307 307 307 306 305 305 303 301 301 302 302 302 302 302 303 303 304 303 303 303 303 303 304 303 303 303 303 303 303 302 302 302 301 301 301 300 301 301 301 300 299 298 297 295 295 295 295 294 294 294 293 292 292 292 292 292 292 292 292 293 294 293
314 316 315 313 311 312 312 312 311 312 312 311 310 311 314 315 314 313 314 314 315 316 316 316 313 310 310 310 310 310 310 309 309 308 306 306 306 305 305 304 303 302 300 300 300 301 301 301 301 302 302 303 303 302 302 302 303 303 303 303 303 304 304 304 303 301 301 300 300 300 299 299 299 299 298 298 297 296 295 295 295 295 294 294 294 293 293 292 292 292 292 292 292 291 292 293 294
313 312 310 310 310 311 311 311 311 310 310 312 312 312 314 316 314 312 312 313 315 316 315 315 312 310 309 309 309 308 308 307 306 306 305 304 304 304 303 303 302 301 300 300 299 300 300 301 301 301 301 302 302 302 302 302 302 303 303 303 303 303 303 304 303 302 301 300 299 299 298 298 298 297 298 297 297 296 296 295 295 295 294 294 294 293 293 293 292 292 292 292 291 291 291 292 294
311 309 309 310 310 309 310 311 311 310 312 315 314 312 316 318 316 313 313 313 316 317 314 312 309 309 309 309 307 306 306 306 305 304 303 303 302 302 301 301 300 300 299 299 299 299 299 299 300 300 301 301 301 301 301 301 301 302 303 303 303 303 303 303 303 302 301 300 299 299 298 298 297 297 296 296 296 296 296 296 295 295 295 294 294 294 293 293 292 292 292 292 292 291 291 291 293
309 309 311 312 310 309 309 309 310 312 316 317 314 313 316 317 317 315 315 313 313 314 313 311 308 307 308 307 305 304 303 303 303 302 301 301 300 300 300 299 299 299 298 298 298 298 298 298 299 300 300 299 299 300 300 301 301 301 302 302 303 303 303 303 302 302 301 300 299 299 298 298 297 296 296 296 295 295 295 295 295 295 295 294 294 294 294 293 293 292 292 292 291 291 291 291 292
309 310 311 312 312 311 310 310 310 315 320 316 313 313 315 317 317 314 314 313 311 311 312 312 309 306 306 305 303 302 301 301 300 299 299 298 298 298 298 298 298 298 297 298 297 297 297 297 298 299 298 298 298 298 299 300 300 301 301 301 302 302 302 302 302 302 301 300 300 299 299 298 297 296 296 295 295 295 295 295 295 295 295 294 295 294 294 294 293 293 292 291 291 291 291 291 291
308 309 310 312 315 316 317 316 314 317 319 312 309 312 314 316 316 313 314 315 312 310 310 309 307 305 304 303 302 301 299 299 298 297 297 296 297 297 297 297 297 297 297 297 297 297 297 297 297 297 297 297 297 297 298 298 299 300 300 300 301 301 301 301 301 301 301 300 299 299 299 298 297 296 296 295 295 295 295 294 294 294 294 294 294 294 294 294 293 293 292 292 291 291 291 291 290
309 310 311 315 318 321 323 321 318 319 318 310 307 311 313 315 315 314 314 314 310 307 307 306 305 304 302 301 300 299 298 297 297 296 296 295 296 296 296 296 296 296 296 296 296 296 296 296 296 296 296 295 296 296 296 297 298 298 299 299 299 300 300 300 300 300 300 300 299 299 299 298 298 297 297 296 296 295 295 294 294 294 294 294 294 294 294 294 293 293 292 292 292 292 291 290 290
310 312 313 315 319 323 324 324 322 323 322 313 309 313 316 316 315 312 312 311 307 305 305 304 303 302 301 300 298 298 297 296 296 295 295 295 295 295 295 295 295 295 295 295 295 295 295 296 295 295 295 295 295 295 296 296 296 297 297 298 298 298 299 299 299 299 299 299 298 298 298 298 298 297 297 297 296 296 295 295 294 294 294 294 294 293 293 293 293 293 292 292 292 291 291 291 290
312 311 312 313 318 323 322 321 323 322 321 318 314 315 316 315 314 312 311 309 306 305 304 302 302 300 299 298 297 296 296 295 295 295 294 294 294 294 294 294 294 294 294 294 294 294 295 295 295 295 295 294 294 294 294 295 295 296 296 296 297 297 297 298 298 298 298 298 298 297 297 297 297 297 297 297 296 296 296 295 294 294 294 294 293 293 293 293 293 292 292 291 291 291 291 291 290
312 310 313 314 317 320 319 319 321 319 319 320 318 318 317 316 317 314 312 310 306 305 303 301 300 299 298 297 296 295 294 294 294 294 293 293 293 293 293 293 293 293 293 293 293 293 294 294 294 294 294 294 294 293 294 294 294 294 294 295 296 296 296 297 297 297 297 297 297 297 297 297 297 296 296 296 296 296 296 295 295 294 294 293 293 293 293 293 293 292 292 291 291 291 291 291 290
311 312 316 315 314 315 314 316 319 319 320 321 320 320 320 320 319 314 311 312 308 305 301 299 298 297 297 296 294 294 293 293 293 293 293 293 293 292 292 292 292 292 292 292 292 292 292 293 293 293 293 293 293 293 293 293 293 293 293 294 294 295 295 296 296 296 296 296 296 296 296 296 296 296 296 296 296 295 295 295 295 294 294 294 293 293 293 293 292 292 291 291 291 291 290 290 290
311 312 313 313 315 315 314 315 318 320 322 321 320 320 319 320 320 315 313 313 310 305 301 298 296 296 295 295 294 293 293 293 292 292 292 292 292 292 292 292 291 291 291 291 291 291 291 291 291 291 292 292 292 292 292 292 292 292 292 293 293 293 293 294 294 295 295 296 296 296 296 295 295 295 295 295 295 295 295 294 294 294 294 293 293 293 293 292 292 291 291 291 291 291 290 290 289
308 309 310 310 313 315 315 315 317 320 321 322 322 322 321 319 318 315 313 310 307 304 300 297 296 295 294 294 293 293 292 292 292 292 291 291 291 291 291 291 291 291 291 291 291 290 290 290 290 290 290 291 291 291 291 290 291 291 291 292 292 292 292 292 292 293 294 295 295 295 295 295 295 295 294 295 294 294 294 294 294 294 293 293 293 293 292 292 291 291 291 291 290 290 290 290 289
309 309 311 310 311 314 315 314 316 318 319 321 323 322 322 318 313 311 309 305 303 302 299 297 296 295 294 293 293 293 292 292 292 291 291 291 291 291 290 290 290 290 290 290 290 290 290 290 289 290 290 290 290 290 290 290 290 290 290 290 291 291 291 291 291 292 292 293 293 294 294 294 294 294 294 294 294 294 294 294 294 294 293 293 293 293 292 292 291 291 290 290 290 290 290 289 289
313 312 312 312 314 315 315 316 317 317 317 319 320 320 323 317 309 306 304 302 301 299 298 297 295 295 294 293 293 292 292 292 292 291 291 291 291 291 290 290 290 290 290 290 290 290 290 290 290 290 290 290 290 290 289 289 289 289 289 289 289 290 290 291 291 291 291 291 292 292 293 293 293 293 293 293 293 293 293 293 293 293 293 293 293 293 292 291 291 291 290 290 290 289 289 289 288
Wind_Speed
3 3 3 3 4 3 2 2 2 0 2 4 2 3 0 0 4 4 3 2 2 0 1 1 2 4 2 2 4 6 5 5 4 4 2 3 2 4 16 17 14 21 29 31 29 28 26 25 25 23 22 22 21 20 20 20 19 18 16 15 15 14 13 13 12 12 12 12 12 11 11 11 11 10 10 10 9 9 8 9 9 9 9 9 8 8 8 8 7 5 5 3 2 4 5 4 3
2 2 2 3 4 2 1 1 4 1 3 4 1 1 2 1 2 2 5 6 5 2 1 2 4 5 4 4 5 7 6 6 4 4 2 3 4 4 15 18 15 23 29 30 28 24 22 23 26 24 22 22 22 21 21 21 19 18 17 15 15 14 14 13 13 13 13 12 12 12 12 11 12 11 11 10 9 8 8 8 9 9 9 8 8 8 7 7 6 5 5 3 2 3 3 1 2
1 2 1 1 3 2 1 1 4 2 4 4 2 1 1 2 1 3 4 6 5 3 1 2 3 4 6 7 5 5 4 3 4 3 2 6 3 2 14 19 18 24 28 31 27 22 20 22 27 25 23 22 22 21 20 20 19 18 17 16 15 14 14 14 13 13 13 13 13 12 12 12 13 12 11 10 9 8 7 8 8 9 9 9 8 7 6 5 5 4 4 3 3 2 1 3 4
2 1 1 2 1 1 1 2 3 3 4 3 2 2 1 3 2 4 4 5 4 1 2 2 3 2 6 8 3 3 5 3 3 4 2 3 3 2 12 20 19 24 27 32 27 21 20 22 27 26 24 22 21 22 20 19 18 18 17 16 15 15 15 14 14 13 13 13 13 13 13 13 13 12 10 9 8 7 7 8 8 8 8 8 7 6 5 4 4 4 3 3 3 3 3 5 6
3 3 1 2 2 0 0 1 1 3 3 2 4 1 1 2 4 6 5 6 3 3 4 3 2 2 3 5 2 2 3 1 3 5 2 1 5 4 13 21 19 24 27 31 25 19 19 22 27 26 25 23 22 22 21 20 19 18 17 17 16 15 15 15 14 14 14 14 14 14 14 13 12 11 10 9 8 8 8 7 8 8 8 8 7 5 4 4 4 5 4 4 4 5 6 6 7
4 5 4 2 0 1 1 2 2 4 2 1 6 5 2 3 5 8 8 7 2 3 4 3 2 1 3 3 3 4 2 0 1 5 5 2 5 5 14 22 20 23 25 26 22 19 19 22 27 26 24 23 22 22 21 21 19 18 17 16 16 16 15 15 15 14 14 14 15 14 14 13 12 11 9 9 9 9 8 8 8 8 8 7 6 5 4 4 4 5 5 6 6 7 8 8 8
3 2 3 3 2 1 3 4 4 5 1 1 6 7 8 6 4 7 9 6 1 3 3 3 2 3 4 1 3 6 7 6 1 3 6 4 5 6 16 23 21 23 24 23 20 18 19 23 28 25 24 23 22 22 22 21 19 18 17 16 16 16 16 16 16 15 15 15 15 14 13 12 11 10 9 8 9 10 8 8 8 8 9 7 7 6 6 5 5 7 7 7 8 8 8 8 7
2 1 0 2 2 1 3 4 4 4 1 2 5 8 11 9 5 7 9 4 1 1 3 4 2 4 2 2 3 3 7 10 9 8 7 7 6 7 17 25 22 23 23 21 19 19 23 26 28 25 24 22 22 22 21 21 19 18 18 17 17 17 17 17 16 15 15 14 13 12 11 12 11 10 10 9 8 9 9 9 9 9 9 8 7 7 7 6 6 8 7 8 8 7 7 6 6
2 1 1 2 2 1 3 4 4 3 3 4 6 9 10 9 5 7 8 5 4 3 3 4 4 5 1 1 6 1 3 8 11 12 10 9 7 8 19 26 23 25 25 20 20 22 25 28 27 25 24 23 22 22 21 20 19 19 18 18 17 17 17 17 16 15 14 13 12 12 12 11 11 11 10 10 9 10 9 10 10 10 9 9 8 7 8 7 7 8 8 8 7 6 5 4 3
1 2 1 1 1 3 3 3 2 2 3 4 7 11 10 7 4 5 7 5 3 3 1 1 4 8 4 5 7 1 2 5 7 10 11 11 8 10 19 25 24 26 26 20 22 25 25 28 28 26 25 23 22 21 21 20 19 18 18 18 18 17 16 16 16 14 14 13 12 13 12 11 12 12 11 11 11 10 10 11 11 10 10 9 9 9 9 8 9 8 7 7 5 4 2 1 1
1 1 0 1 2 3 3 3 3 3 3 4 7 8 7 3 3 4 6 5 3 3 1 3 4 8 7 6 5 2 4 6 5 7 10 11 9 11 19 24 23 25 25 21 26 29 27 29 29 28 27 25 24 22 22 21 20 19 18 19 18 18 17 17 17 15 14 14 14 13 13 13 14 12 12 12 13 12 11 11 11 11 10 10 9 10 11 10 9 7 7 5 3 1 1 1 2
2 2 2 2 2 3 3 4 5 6 6 5 4 2 0 2 4 2 4 4 2 4 5 7 2 2 5 5 2 1 4 6 6 7 9 11 10 12 18 22 22 24 22 21 28 31 29 30 30 30 29 27 26 24 23 22 22 20 19 20 19 18 18 17 17 17 16 15 15 14 15 16 15 14 14 14 13 13 13 12 12 12 11 11 10 10 11 10 8 7 5 4 3 2 2 2 2
2 2 2 2 1 2 1 4 4 5 6 3 1 3 1 4 4 2 2 3 3 5 4 8 2 1 6 6 3 3 3 4 6 8 9 11 11 13 17 21 21 20 18 20 29 33 31 30 28 29 30 30 28 26 25 24 25 23 22 21 21 20 19 18 17 18 18 17 17 16 16 16 17 17 16 15 14 13 13 13 13 13 12 11 11 10 10 9 9 7 5 5 4 4 3 3 3
1 1 2 1 0 2 2 4 3 3 4 0 2 3 3 3 2 2 2 5 5 2 2 3 3 2 7 5 4 3 2 2 5 7 9 11 13 14 16 19 18 17 20 25 29 30 32 31 25 25 28 29 29 28 28 27 26 25 24 23 23 23 22 21 19 19 19 19 19 19 18 18 19 18 17 15 14 13 13 14 13 13 12 12 11 11 10 9 8 6 6 5 4 4 3 3 2
1 1 1 1 1 2 3 3 2 2 3 0 1 2 3 4 2 3 4 7 4 2 2 2 4 3 3 4 5 2 4 0 3 7 9 11 12 13 14 13 15 20 26 30 30 27 30 32 28 25 25 26 25 25 27 29 29 27 26 25 23 24 24 23 22 20 21 22 21 21 21 20 20 19 18 16 15 14 14 15 14 13 13 12 12 12 11 10 8 6 5 4 3 3 2 2 3
0 1 1 2 2 2 3 3 1 3 3 1 2 1 3 3 4 3 2 4 6 1 2 4 6 5 3 6 6 3 2 2 2 6 9 10 11 11 10 11 15 21 26 30 33 33 32 34 33 29 26 25 23 22 22 25 30 30 28 27 25 24 24 24 23 22 22 23 22 22 22 21 20 19 19 17 16 16 15 16 14 13 13 13 13 13 12 10 8 7 6 4 3 2 2 2 3
1 2 3 3 3 3 3 4 3 1 2 2 3 4 6 3 4 2 0 3 8 5 4 6 6 7 8 9 6 1 4 4 3 6 8 8 8 8 9 11 13 18 26 31 34 36 36 36 36 34 32 30 26 24 22 22 28 30 29 29 28 25 24 24 25 24 23 24 24 23 23 21 20 18 18 17 16 17 17 16 15 14 13 13 15 14 12 10 10 8 7 6 4 3 2 1 1
2 2 3 4 4 3 4 7 5 0 4 4 3 5 7 6 2 1 2 6 9 10 11 9 9 11 15 14 11 10 9 6 6 8 9 9 8 9 10 12 14 17 23 30 34 36 38 38 38 37 37 36 32 31 30 28 29 29 28 28 29 28 26 25 26 26 25 25 25 25 22 19 18 16 16 17 16 16 18 17 16 16 13 13 16 14 13 12 11 9 8 7 5 4 3 2 2
3 2 3 5 4 2 3 6 5 4 7 6 2 4 5 6 3 1 5 9 7 11 15 10 11 15 17 17 17 16 12 9 10 10 11 12 12 12 12 12 15 17 20 28 35 38 39 39 39 39 38 38 36 35 35 33 31 29 27 25 27 29 27 26 27 28 26 26 28 26 21 18 20 18 17 19 17 17 18 18 17 17 15 15 16 14 13 13 11 10 9 7 6 5 4 4 4
3 2 5 7 5 3 4 6 7 7 7 8 7 2 4 6 2 2 6 11 9 12 16 11 12 15 14 14 15 14 12 12 12 13 14 15 15 14 14 14 17 21 24 27 31 36 41 40 41 41 40 38 37 36 35 34 31 29 27 25 27 27 27 27 28 30 29 28 30 27 22 22 24 21 21 21 19 18 18 19 19 19 17 17 17 15 15 14 13 11 9 8 6 6 5 5 5
2 4 8 5 2 4 6 8 9 6 3 7 7 4 7 5 3 5 6 8 11 13 15 15 15 15 14 11 9 10 10 11 12 14 16 17 17 16 16 16 18 23 26 23 24 33 41 41 41 41 41 40 38 37 35 34 32 29 27 28 29 26 25 29 30 31 32 31 31 28 26 28 27 23 23 23 20 18 18 19 20 19 19 19 18 18 17 16 14 12 11 9 8 7 7 6 6
2 7 11 6 2 5 6 5 5 3 1 5 6 7 7 2 3 9 9 9 12 12 14 16 15 15 15 13 5 6 8 11 12 15 16 18 19 18 18 17 18 20 23 23 26 34 38 41 42 40 40 36 34 37 37 34 33 31 29 31 32 28 27 31 33 33 34 33 32 31 31 30 27 24 24 24 22 20 19 19 20 20 21 22 21 20 19 17 15 13 12 11 10 9 9 8 7
6 8 9 9 6 7 6 1 2 3 3 6 6 7 5 4 9 10 12 16 17 17 19 19 18 16 12 9 6 6 9 11 12 15 18 18 19 21 21 19 19 21 24 27 30 32 35 40 42 39 36 30 27 31 32 33 35 34 30 33 35 31 31 35 35 35 36 35 35 34 33 31 28 27 27 27 26 25 23 23 24 24 25 24 23 22 19 17 16 15 14 12 12 11 10 10 9
7 8 6 7 6 9 8 1 1 3 6 8 5 7 10 13 11 6 12 19 22 22 21 20 21 18 9 7 11 12 12 13 15 19 20 20 22 24 24 23 23 22 24 29 30 30 32 38 42 41 37 30 26 26 26 29 35 35 31 35 38 35 35 37 37 37 38 37 37 36 33 32 30 29 29 30 30 29 28 28 29 29 27 25 24 22 20 18 18 16 15 14 13 13 12 11 10
9 11 7 3 4 8 7 3 4 6 8 7 5 11 19 17 8 8 16 19 21 21 21 20 19 18 11 11 15 14 14 14 17 20 19 22 24 22 23 25 22 22 27 31 31 31 33 36 40 43 41 35 28 25 26 27 31 35 34 36 40 37 33 34 39 40 40 39 38 38 36 34 33 32 32 32 32 32 31 32 32 30 28 26 24 23 21 20 19 18 17 16 15 14 13 12 11
7 10 8 5 8 9 6 5 8 8 7 5 7 17 21 10 4 15 21 20 21 18 20 19 15 16 13 12 14 14 15 14 17 19 16 18 20 20 24 25 21 26 32 32 32 34 35 35 38 42 43 40 32 27 27 27 29 33 34 37 41 38 30 29 39 42 40 41 41 39 38 36 35 34 34 34 34 34 34 34 33 32 30 27 25 24 23 22 20 19 18 17 17 16 15 14 13
0 4 8 9 12 10 5 8 10 8 8 9 12 19 20 3 2 14 14 10 12 12 15 16 11 13 12 11 12 12 13 15 17 15 13 13 14 18 23 22 23 30 31 31 35 36 35 36 37 40 42 43 38 33 31 29 30 30 29 34 37 39 33 27 36 43 42 43 43 41 39 38 37 36 36 36 36 36 35 34 34 33 31 28 27 26 25 23 22 21 20 19 18 18 16 15 14
3 3 9 11 12 12 9 11 11 8 7 10 13 17 18 5 4 17 14 3 4 7 13 14 11 11 11 12 11 9 10 15 15 12 13 14 14 19 21 23 28 30 29 34 37 35 36 37 37 38 41 44 43 39 36 33 32 30 27 29 31 36 33 27 36 45 44 44 44 43 41 39 39 38 37 37 37 37 36 36 35 35 33 30 29 27 26 24 23 22 21 20 19 19 17 16 15
3 3 9 12 11 16 14 12 8 7 6 6 9 10 14 11 12 21 15 3 4 8 13 15 13 11 10 11 10 9 10 12 12 11 16 19 18 19 22 27 30 29 30 34 34 34 37 37 37 38 39 43 46 44 40 37 36 32 27 26 30 33 29 29 41 46 45 45 44 43 42 40 40 39 38 37 37 37 37 37 36 36 34 32 30 29 27 25 24 23 21 21 20 19 18 17 16
4 2 4 9 10 12 8 5 2 4 5 8 8 6 9 12 16 18 7 2 5 9 13 14 13 10 9 10 8 9 10 10 11 14 19 20 17 16 20 25 27 29 30 30 31 35 37 37 39 39 40 43 45 46 44 41 39 35 31 28 30 32 28 33 44 46 45 46 45 44 43 41 41 39 39 38 37 38 38 37 37 37 35 33 31 29 28 27 25 24 23 23 21 20 19 18 17
4 2 2 5 7 7 1 5 4 4 4 10 9 8 9 11 15 12 1 2 6 9 14 14 12 10 8 9 9 10 12 11 13 17 18 16 14 16 21 25 27 29 29 29 32 34 33 36 39 40 41 42 44 46 47 47 44 40 38 33 31 32 32 35 43 46 46 46 46 45 44 43 41 40 40 39 38 39 39 39 38 38 36 34 32 31 30 29 27 26 25 24 23 22 21 20 18
3 3 5 4 5 7 6 3 7 8 2 7 9 7 8 11 14 8 2 1 6 9 14 14 14 14 12 12 11 12 14 15 17 17 14 13 16 21 25 27 29 30 30 31 33 32 31 34 37 39 41 42 43 45 47 48 46 43 42 38 35 35 36 37 41 46 46 46 46 46 45 44 42 42 41 40 40 40 40 40 39 38 37 35 34 33 32 31 29 28 27 26 25 23 22 20 19
4 5 8 6 7 7 7 7 7 8 2 5 12 9 8 8 11 9 2 3 7 10 16 18 18 16 14 13 11 12 14 15 14 12 11 11 17 22 25 27 28 29 31 31 31 31 32 33 34 37 40 41 43 44 45 45 44 43 42 40 39 39 39 39 41 44 45 46 47 46 46 45 44 43 42 41 41 41 41 40 39 39 38 36 36 35 33 32 31 29 28 27 26 24 23 22 20
5 6 7 7 9 8 6 8 4 4 6 8 12 12 13 12 14 15 11 11 14 16 19 21 19 16 15 12 12 13 12 12 11 9 10 12 16 20 23 26 26 26 27 28 29 30 30 31 32 35 37 39 40 40 41 43 42 41 40 40 40 41 42 42 41 42 44 46 47 48 47 46 46 44 43 42 42 42 42 41 41 40 38 37 37 36 34 33 32 30 30 28 27 25 23 22 20
8 5 6 6 7 9 9 10 5 2 7 8 10 13 15 16 16 17 19 18 18 20 20 19 17 18 16 12 13 12 9 9 8 8 10 13 15 17 19 22 23 23 24 25 25 27 27 28 29 31 33 35 36 36 36 37 36 34 34 36 38 40 40 41 41 42 44 46 48 49 49 48 47 46 45 44 43 43 43 42 42 40 39 38 38 36 35 34 33 32 31 30 28 25 22 21 20
7 5 7 8 8 9 11 13 8 6 11 12 13 18 17 15 14 14 17 17 16 20 21 17 15 15 14 14 13 8 5 5 5 7 10 12 13 13 15 17 19 19 19 20 19 22 25 25 26 27 30 33 32 31 31 30 28 26 28 31 33 36 38 39 41 42 43 46 49 50 51 50 48 48 47 45 45 45 45 44 43 41 40 40 39 38 37 36 35 34 32 30 29 26 22 21 21
5 5 8 10 10 11 12 14 9 1 7 11 13 19 19 17 17 13 15 17 19 23 21 16 14 13 13 15 10 4 4 3 4 9 11 10 11 12 13 13 14 14 15 14 15 18 21 22 23 25 27 29 28 27 27 27 24 22 23 25 27 28 32 36 38 41 43 45 48 50 50 50 49 49 48 47 47 46 45 44 44 42 41 41 41 40 39 38 36 35 32 30 29 27 24 23 23
9 8 9 10 9 12 12 13 11 1 4 9 10 18 19 16 19 17 18 19 20 21 19 16 16 16 14 9 4 5 5 4 6 8 7 6 9 12 13 13 12 11 10 11 12 14 16 18 20 22 23 25 27 26 26 27 25 24 23 21 21 20 24 30 30 33 39 41 43 46 47 48 48 48 48 48 48 47 46 45 45 44 43 43 42 41 40 39 38 36 34 30 29 26 23 25 26
11 8 8 9 7 11 11 9 8 1 2 8 11 16 16 16 22 21 18 17 17 17 16 17 19 17 10 5 7 6 5 5 6 6 6 7 11 15 16 15 15 13 11 10 11 12 13 15 17 19 20 24 26 27 28 28 26 27 25 21 20 18 19 25 27 28 33 37 38 40 43 44 45 47 47 48 48 48 48 47 46 45 45 44 43 42 41 40 39 38 37 34 30 23 19 25 31
9 8 8 8 6 8 8 4 1 1 5 9 13 15 13 14 16 12 10 10 12 14 16 18 15 8 4 7 6 4 3 3 5 6 7 10 12 15 15 15 17 18 15 13 11 11 10 12 14 16 18 21 24 26 29 29 26 28 28 26 25 21 19 23 27 29 31 33 35 37 40 42 43 45 46 48 49 49 49 48 48 47 47 46 46 45 44 43 42 41 40 37 33 26 19 25 34
9 9 8 11 11 11 11 6 4 7 7 5 10 12 8 5 3 1 1 3 7 12 15 12 3 7 7 6 2 2 2 3 5 8 9 11 12 14 15 16 19 18 17 17 15 11 9 8 10 12 14 17 21 24 27 28 26 24 24 24 23 20 20 20 22 24 26 29 32 35 38 40 41 43 44 46 48 49 49 49 49 49 49 48 48 47 47 46 45 44 43 40 39 34 26 26 33
8 7 10 15 15 14 15 11 7 8 5 1 7 9 3 1 1 5 7 4 9 12 9 3 8 11 6 4 1 1 3 4 5 8 9 10 12 14 16 19 20 19 20 22 20 15 12 8 7 8 10 12 17 20 23 25 24 21 18 19 18 17 18 18 19 20 22 27 31 33 36 40 42 43 44 46 47 48 49 49 49 49 49 49 49 49 48 47 46 46 45 44 43 39 31 25 30
8 4 8 13 13 12 12 9 5 5 4 1 3 6 6 4 4 6 8 8 14 14 6 2 7 8 5 3 3 4 6 6 7 10 11 12 13 14 16 20 20 20 24 27 24 21 18 13 9 7 6 9 13 17 20 22 21 20 20 21 19 18 17 16 16 18 20 24 27 30 33 36 40 42 43 44 45 47 48 49 50 50 50 50 50 49 49 49 48 48 47 46 46 41 33 26 27
5 1 2 5 7 8 6 5 5 4 5 2 4 5 8 7 3 4 5 9 15 13 6 4 9 10 5 5 6 7 8 9 9 11 12 13 14 14 16 19 20 22 28 31 28 26 24 20 15 10 6 6 10 13 17 20 19 18 20 21 19 19 19 15 14 17 18 19 23 27 29 31 35 38 40 41 43 44 46 47 48 49 49 49 50 50 50 50 49 49 48 48 47 44 40 32 28
2 4 2 0 1 3 3 4 5 3 5 4 5 5 6 7 2 2 4 8 11 7 7 9 12 10 4 6 10 10 11 12 11 10 12 14 15 17 19 21 23 25 29 31 30 29 27 24 21 16 9 6 8 10 13 17 19 18 18 18 18 18 17 14 13 15 16 17 21 24 25 27 31 35 38 40 42 43 45 46 46 47 48 48 49 50 50 50 49 50 50 49 49 46 46 40 29
1 4 3 3 2 1 2 3 3 2 5 5 6 8 6 8 2 3 2 3 5 5 8 12 13 9 5 8 12 13 12 11 11 12 13 15 18 21 23 26 27 28 30 33 34 32 29 27 24 19 14 10 8 8 9 13 16 18 16 16 17 16 15 13 12 12 12 14 17 19 21 23 26 31 36 39 41 43 45 46 46 47 48 48 49 50 50 50 49 49 50 50 51 48 48 47 35
1 2 1 0 2 1 1 2 1 3 7 4 10 13 8 6 1 3 0 1 2 3 6 11 11 8 7 10 12 12 11 10 10 11 13 16 20 23 25 26 28 29 32 34 36 34 32 30 25 20 17 14 11 9 7 9 12 15 15 14 16 16 13 12 12 12 11 12 14 15 17 19 22 27 31 35 39 42 44 45 46 47 48 48 50 50 51 51 49 49 49 48 50 50 48 50 45
1 1 2 3 2 1 2 1 1 5 6 1 5 7 9 8 2 2 3 3 2 2 3 7 8 8 9 10 11 10 9 10 10 10 12 15 18 21 23 24 24 26 29 30 31 31 30 30 27 21 20 19 15 13 10 8 9 11 13 14 14 14 13 13 14 14 12 13 14 13 13 16 20 24 28 32 37 40 42 43 44 46 47 49 50 51 51 51 50 49 49 48 49 50 49 49 49
3 2 2 4 3 2 3 2 2 5 4 1 2 1 5 9 5 5 10 6 3 3 4 6 9 10 11 11 11 10 10 11 11 11 12 12 14 17 19 21 22 23 25 26 27 27 26 27 26 22 21 22 20 17 14 10 9 10 11 12 12 12 12 13 15 14 13 13 13 13 14 16 18 22 27 32 36 39 41 41 43 45 47 48 49 50 50 50 50 49 48 49 49 50 51 50 50
6 4 4 3 4 4 5 3 3 5 2 3 2 0 4 7 4 8 12 4 9 9 8 11 14 13 11 11 10 10 11 12 12 11 12 12 13 16 18 19 20 22 24 25 26 27 25 25 25 23 23 25 24 21 18 14 11 11 11 11 11 11 11 12 13 14 13 13 13 14 15 17 19 24 28 32 34 37 39 41 43 44 45 46 47 48 49 49 50 49 48 49 50 50 51 51 50
5 2 1 3 4 4 6 5 5 8 5 0 2 2 4 3 1 1 1 8 12 11 13 14 14 11 9 9 10 10 12 12 11 11 13 13 15 17 18 18 20 21 22 23 24 24 23 23 24 24 25 27 29 26 21 17 14 13 12 12 12 11 12 12 13 13 13 13 13 14 16 18 22 26 29 31 33 34 37 39 42 44 45 46 46 46 47 48 47 47 47 48 49 50 50 50 50
1 1 1 3 3 3 4 7 6 6 7 4 4 3 4 2 3 4 3 11 13 13 14 13 12 11 10 10 11 11 11 11 11 11 12 13 15 16 16 17 19 20 21 21 21 21 22 22 23 24 25 28 31 29 24 21 18 15 14 14 13 12 12 13 13 13 13 13 15 16 18 20 23 25 27 30 32 33 35 37 40 42 44 45 46 46 47 47 46 46 47 47 48 49 49 49 50
2 2 4 3 2 3 4 6 2 1 6 6 4 6 7 5 6 4 7 12 13 13 13 12 12 12 11 10 9 9 9 10 10 10 10 11 13 14 15 16 17 18 19 19 19 18 18 18 19 22 26 30 32 30 27 25 23 20 18 16 15 14 13 14 14 15 15 14 16 18 18 19 22 25 27 29 31 32 33 35 38 40 43 44 46 46 47 47 46 46 47 47 48 49 49 49 49
3 3 3 1 1 1 2 3 0 2 7 6 5 11 10 6 4 3 9 9 10 11 9 10 10 9 10 9 8 9 9 8 9 9 9 10 12 13 14 15 16 17 17 17 17 16 17 18 20 22 25 27 28 28 28 27 27 26 23 19 17 15 14 14 14 15 16 15 16 18 18 19 22 25 27 29 30 31 32 34 36 38 40 42 44 45 46 47 46 47 47 47 48 47 47 48 48
1 2 1 0 2 3 3 3 2 4 7 4 6 12 10 7 6 4 5 4 8 8 6 9 9 8 8 7 7 8 7 7 7 7 7 7 10 13 15 16 16 17 17 17 18 21 25 28 29 29 26 24 24 26 28 29 30 29 26 23 20 17 15 13 13 14 16 16 16 16 18 21 24 25 27 29 30 30 31 32 34 36 38 40 42 43 44 45 46 46 46 47 47 47 46 47 47
1 1 1 0 2 4 3 2 2 4 7 6 6 8 6 4 3 3 5 6 6 5 6 8 8 7 6 5 5 5 4 4 4 4 5 5 8 11 12 13 14 15 16 17 18 23 28 31 31 30 29 27 26 25 26 29 30 30 29 29 27 25 21 18 16 14 14 16 16 16 17 21 24 25 27 28 29 30 31 32 34 35 37 38 39 41 42 43 44 46 46 46 47 47 48 48 47
4 5 5 4 2 1 2 2 2 3 5 6 6 6 4 0 2 5 7 6 5 6 7 6 5 6 5 5 5 4 4 4 4 3 4 4 4 6 6 8 9 11 13 15 16 18 21 24 26 26 26 27 27 26 26 27 26 26 28 30 31 31 28 26 22 18 15 16 16 16 18 21 24 25 27 28 29 30 31 33 34 35 36 37 38 39 41 42 43 44 45 45 45 44 47 48 46
3 4 5 5 4 2 4 5 3 3 4 4 5 6 2 2 3 5 7 5 6 6 6 6 6 6 6 5 5 4 4 4 4 4 3 3 3 3 3 5 6 7 8 10 11 12 14 16 18 18 18 17 18 20 23 26 25 24 25 27 29 30 30 30 27 22 18 17 17 17 18 20 22 24 26 27 28 29 31 32 34 35 36 37 38 39 40 41 42 42 42 44 44 43 44 45 43
Wind_Direction
339 337 340 348 339 290 291 336 288 165 276 282 293 303 156 177 313 292 315 346 300 66 163 282 177 172 194 306 308 315 305 262 290 297 343 38 294 216 180 185 183 175 178 178 178 179 177 178 177 179 182 182 182 182 184 184 185 186 184 182 187 186 177 178 178 178 178 179 177 177 178 175 173 167 166 164 163 162 160 160 154 152 151 147 145 143 145 153 151 159 192 206 164 136 128 116 92
353 357 5 33 15 306 228 348 287 288 275 287 296 289 40 120 259 305 355 357 338 15 25 263 209 222 269 297 300 291 262 227 277 312 343 305 290 242 194 183 177 174 178 180 178 178 179 182 179 179 183 183 183 184 188 187 187 187 186 187 186 184 180 182 183 182 183 181 181 181 181 176 172 168 166 160 157 157 157 157 149 149 148 145 146 145 151 155 144 152 185 194 190 169 141 91 7
25 22 27 20 28 353 184 230 275 299 289 299 348 78 55 256 276 7 359 343 339 2 288 222 218 246 247 246 260 275 270 216 253 262 264 281 270 248 203 186 176 174 179 181 178 178 181 188 183 179 184 185 185 186 190 190 189 188 189 190 186 184 184 185 186 187 186 184 185 184 181 176 171 167 161 155 152 153 153 153 148 148 149 148 147 145 150 153 150 151 167 190 203 204 265 321 318
39 35 105 255 238 219 232 259 284 287 290 304 330 90 158 277 348 344 335 332 328 280 233 201 202 199 235 254 282 270 269 239 209 217 245 280 228 251 202 191 177 173 182 182 179 179 183 193 185 181 185 185 187 187 191 192 191 192 192 192 187 186 187 188 189 190 190 187 186 183 180 175 169 163 156 154 152 153 152 154 150 147 155 157 148 143 160 160 174 197 191 208 218 240 288 302 300
69 55 110 245 245 277 285 278 269 256 287 343 315 26 135 279 314 311 310 314 299 230 221 215 226 137 235 268 302 270 282 229 161 200 237 317 223 240 198 193 181 175 183 182 181 181 186 195 186 182 186 185 188 189 192 194 194 195 194 192 189 189 188 190 191 192 192 189 185 180 177 172 165 162 160 163 162 163 161 164 159 156 162 162 157 150 173 163 168 215 225 234 243 264 283 289 290
100 71 77 89 92 6 232 247 242 252 292 330 290 309 335 291 299 307 302 304 288 214 219 221 265 296 257 241 223 251 309 315 124 191 213 259 224 225 198 194 185 178 181 182 183 183 189 195 185 184 186 185 189 190 193 195 194 195 195 192 191 192 191 193 193 194 191 186 184 178 174 170 168 167 166 172 179 179 175 183 179 178 178 172 179 172 185 171 170 226 243 250 259 269 276 280 283
168 135 76 97 117 255 251 263 269 271 304 206 274 298 310 310 310 306 304 311 167 178 208 229 298 291 271 216 235 238 243 237 228 207 204 226 220 210 198 193 186 179 179 182 183 185 193 192 184 185 187 186 189 191 193 195 195 194 195 193 194 195 194 197 194 194 189 185 183 178 177 173 175 178 174 177 188 192 187 193 194 193 190 186 189 186 192 179 194 236 247 253 262 267 271 275 278
165 187 2 240 169 228 259 265 271 273 260 216 268 274 288 306 310 295 298 306 272 199 200 220 223 264 272 127 263 220 231 238 233 239 225 232 227 205 195 192 188 180 180 182 185 188 191 189 183 185 187 186 190 193 193 193 193 193 196 194 196 198 198 198 195 193 188 186 184 181 182 181 185 187 187 189 205 213 202 198 202 202 198 193 189 187 184 175 211 242 247 253 259 261 266 269 277
72 3 205 246 211 230 257 263 270 255 244 247 263 258 270 291 289 281 279 270 271 269 220 214 199 240 0 185 258 175 208 247 239 240 235 235 230 208 194 193 191 184 184 183 187 189 188 187 183 186 187 187 191 193 193 191 192 194 196 194 195 199 200 199 196 191 187 186 186 190 192 194 196 193 200 210 227 230 208 201 206 205 199 193 189 184 176 182 226 246 248 252 256 257 265 269 283
77 0 192 207 217 252 258 259 267 232 236 245 267 267 271 279 267 260 264 275 272 258 237 121 207 236 293 291 270 257 223 261 249 244 236 233 225 206 194 194 194 190 189 186 188 189 187 186 185 188 187 189 192 192 192 192 193 195 195 194 196 197 197 198 196 192 193 193 192 199 201 204 205 202 220 227 224 223 207 202 203 201 194 188 186 183 189 209 232 240 245 250 252 253 259 255 46
182 59 223 222 225 267 279 279 280 271 270 270 273 267 273 270 246 242 240 271 264 247 230 141 217 235 258 282 267 229 259 273 249 243 236 227 220 202 196 196 195 195 194 189 189 189 189 189 188 190 189 190 192 193 193 193 195 195 196 196 197 198 196 198 201 199 200 202 200 205 208 210 214 218 231 225 213 210 204 199 198 197 190 188 184 188 209 223 228 232 239 238 230 207 143 109 85
223 138 216 248 250 276 303 296 287 294 295 278 260 189 296 175 199 253 229 263 257 248 228 187 215 257 238 265 262 195 239 256 239 238 233 219 215 202 198 200 198 198 198 192 190 190 190 191 192 194 191 191 192 194 197 199 199 198 201 201 201 204 205 203 209 212 207 208 210 215 221 222 223 225 223 215 207 204 201 198 198 195 190 190 185 197 219 223 223 227 220 199 177 149 130 111 92
251 159 218 250 296 280 290 287 286 299 294 269 179 122 135 188 207 291 241 262 236 250 242 196 204 349 258 276 285 261 216 226 239 234 221 208 208 203 200 204 203 200 198 195 193 192 193 193 195 197 196 195 195 197 200 203 202 201 204 205 204 209 213 210 215 219 214 214 217 220 223 224 222 216 213 209 204 202 199 197 196 194 192 189 189 206 220 218 218 212 193 174 158 148 134 117 100
246 186 253 255 91 262 239 274 278 282 292 58 107 137 187 219 237 276 247 280 247 234 349 193 186 248 262 273 266 257 142 189 235 218 206 204 204 203 203 205 206 200 200 199 196 196 196 196 197 199 201 201 201 202 204 206 203 202 202 203 206 210 213 212 215 219 217 215 216 218 217 220 220 211 206 205 202 201 198 196 195 194 192 191 201 214 215 213 211 195 181 169 155 146 128 111 87
232 175 256 234 190 237 213 251 284 265 287 1 120 127 209 230 197 218 240 289 294 100 26 201 180 239 246 239 272 59 99 282 218 200 198 202 202 203 205 206 206 204 205 202 200 201 200 201 201 202 203 204 205 206 207 208 207 205 203 204 208 213 212 211 214 217 216 215 215 216 216 217 218 211 205 202 202 202 199 200 197 196 194 196 207 211 210 210 202 188 179 168 155 139 107 75 49
269 180 214 246 222 226 205 207 216 245 261 174 118 118 250 219 169 235 254 293 296 155 188 203 189 252 263 244 282 62 131 280 193 192 191 197 199 200 204 207 209 208 208 205 205 206 205 206 206 207 207 206 207 208 208 210 210 208 208 209 211 213 214 212 212 217 216 214 213 214 214 215 215 212 208 204 204 204 205 206 200 196 193 194 204 207 207 204 194 189 183 175 165 140 95 52 26
228 225 230 249 229 222 195 190 194 255 290 204 149 180 250 245 166 232 327 242 267 261 228 212 201 242 247 244 269 279 257 274 206 188 179 188 189 191 203 206 209 213 213 210 209 209 210 211 211 212 212 211 210 210 210 211 212 212 213 214 214 214 215 213 212 216 216 213 212 212 212 212 209 209 208 205 205 207 209 208 198 191 185 188 201 205 202 196 192 190 185 181 171 156 128 91 5
219 225 236 251 246 228 196 207 205 241 293 260 169 180 240 269 239 191 244 234 243 264 261 228 223 242 240 246 255 255 260 253 218 196 183 186 185 192 201 203 206 212 214 213 213 212 213 213 214 214 215 215 214 214 215 215 217 217 216 214 214 214 214 214 213 214 215 212 212 211 209 208 205 202 202 202 201 204 209 207 195 187 180 187 201 202 198 195 192 191 187 183 173 170 171 181 211
228 220 241 246 245 213 195 223 210 218 273 286 263 187 230 271 295 51 265 265 252 266 272 241 230 244 240 240 241 244 246 234 219 207 203 200 200 202 200 201 206 210 212 214 216 215 214 214 215 216 217 217 216 217 218 218 219 218 214 212 212 213 213 213 212 213 212 211 213 210 204 204 203 199 200 201 199 200 205 204 195 190 187 194 203 200 197 197 195 194 190 185 179 181 189 196 207
226 216 246 248 244 236 220 232 226 231 270 288 278 215 238 256 244 221 259 274 267 260 269 257 246 254 248 233 222 224 228 224 218 217 221 217 214 213 208 202 206 214 216 215 216 217 216 215 216 217 217 219 218 218 219 218 217 215 212 211 210 210 212 212 211 212 211 212 214 209 201 207 209 205 209 209 205 203 203 201 196 196 198 202 203 196 197 200 199 196 190 188 189 193 198 205 210
182 201 245 254 235 251 232 222 232 240 267 274 276 288 271 261 194 226 242 269 265 253 258 257 255 266 271 255 212 197 214 222 220 223 227 227 224 222 221 215 216 222 221 216 216 220 219 216 217 217 218 219 219 218 218 217 214 212 209 210 209 206 209 210 211 213 214 215 215 210 208 215 214 209 213 212 205 200 196 196 196 197 200 202 200 194 199 201 199 197 193 192 195 200 203 207 210
208 220 248 258 199 258 248 212 231 229 217 258 259 272 281 300 215 227 223 248 260 259 266 266 263 269 275 276 244 189 215 226 224 226 227 228 228 228 229 226 225 226 223 220 221 224 223 219 218 218 218 218 218 218 218 217 214 211 209 210 209 206 208 209 212 213 215 217 215 214 215 218 214 209 212 208 200 196 192 191 191 193 198 203 200 198 202 202 198 197 196 197 199 203 204 206 208
248 235 241 251 235 248 257 151 184 179 210 247 250 280 297 262 260 239 216 238 253 262 271 274 277 277 276 282 265 227 227 230 229 228 227 227 227 228 230 227 227 227 226 227 227 227 225 222 220 218 217 214 213 216 216 216 215 214 212 212 210 208 210 211 213 214 215 217 216 218 218 216 212 209 210 207 204 202 198 196 196 199 203 206 202 201 204 201 198 198 199 200 201 204 204 205 206
251 254 242 251 247 249 261 265 205 218 240 253 274 301 279 255 264 245 219 239 251 259 266 270 276 279 277 274 263 252 243 237 238 237 234 232 233 235 235 233 232 232 232 233 232 228 226 225 222 219 216 212 210 211 212 215 216 215 213 214 214 212 213 213 214 215 216 217 217 219 218 215 212 210 211 210 210 207 205 205 205 206 208 208 205 203 204 202 201 200 200 201 203 205 204 205 206
227 250 257 252 258 258 268 275 246 251 252 255 276 275 266 261 272 265 246 247 253 256 263 265 269 273 270 265 262 258 253 245 244 245 241 240 243 243 240 238 233 232 235 236 234 230 229 228 225 220 217 216 212 206 209 213 215 215 214 216 217 215 215 214 215 216 217 217 218 219 218 216 213 212 213 212 211 210 209 210 209 209 210 209 206 203 203 203 203 202 202 203 204 205 204 205 207
215 245 271 274 276 277 277 272 250 246 245 219 238 260 264 269 304 273 255 245 253 255 261 264 262 266 266 262 258 254 253 251 248 249 244 243 245 243 244 240 229 233 237 236 235 234 233 230 228 223 219 219 214 207 209 210 212 214 215 219 219 217 216 213 215 216 217 218 218 219 219 218 216 215 215 213 212 211 211 211 210 211 211 209 206 203 204 204 205 205 204 205 204 204 205 205 207
152 267 290 278 277 281 256 259 255 243 246 214 221 258 265 260 87 271 256 220 244 252 258 262 254 259 262 257 255 250 249 251 251 252 251 245 237 238 243 237 231 238 238 235 237 236 234 232 230 226 221 219 217 213 212 211 210 211 213 217 219 219 218 214 215 216 217 218 219 220 220 219 219 218 217 215 213 212 212 211 210 211 212 210 206 204 205 204 205 207 206 206 205 205 205 205 207
10 325 296 278 277 280 244 244 251 232 242 213 214 255 266 252 188 255 260 180 212 250 262 264 253 253 256 256 257 250 246 250 251 250 251 246 234 235 238 237 240 242 239 240 239 236 236 234 232 228 224 221 219 217 217 214 211 210 210 212 215 218 217 213 215 216 217 219 220 221 221 220 220 219 219 218 215 213 213 212 211 212 213 211 207 205 206 205 205 207 208 207 206 205 206 206 207
319 305 291 288 288 285 260 244 238 209 223 177 188 250 262 239 225 245 255 229 222 249 263 266 261 256 257 261 261 256 251 250 247 241 244 245 240 238 242 247 249 246 246 247 242 237 237 234 232 231 226 224 222 219 218 217 215 214 212 209 214 217 214 214 217 218 218 220 221 222 222 221 221 220 221 221 217 215 215 214 214 214 214 212 209 207 207 206 205 206 207 207 207 206 206 207 208
272 246 283 296 289 284 262 226 202 203 202 155 172 252 263 241 242 249 246 178 231 246 256 263 264 259 258 260 262 265 260 250 244 241 244 246 244 245 250 255 256 253 251 249 244 241 239 235 233 230 227 225 224 221 219 220 218 216 215 212 215 217 214 217 219 219 219 220 222 223 223 223 222 222 222 222 219 217 217 216 216 215 215 213 210 208 207 206 206 205 205 205 205 205 206 207 208
276 280 244 271 270 278 231 144 155 233 193 158 191 255 268 264 269 267 166 147 247 261 261 263 265 262 259 259 259 266 266 256 249 249 252 255 259 260 260 260 260 258 253 249 248 246 240 237 234 230 228 226 224 222 222 223 221 219 219 217 216 216 217 220 219 219 220 222 223 223 223 223 224 223 223 222 220 219 218 217 217 217 216 214 211 209 208 207 206 206 205 204 203 202 205 207 207
245 270 254 224 231 264 283 235 203 235 239 159 199 250 262 257 271 274 96 158 241 261 271 273 271 267 265 264 260 263 268 264 259 261 264 265 269 269 268 266 262 259 254 252 251 248 241 239 237 233 230 227 226 225 224 224 222 221 221 220 219 218 219 221 220 220 221 222 223 223 223 223 224 224 224 223 221 219 218 219 219 219 218 214 211 210 208 207 206 206 206 204 202 201 204 206 206
216 234 258 249 245 266 289 286 238 218 202 192 215 248 269 253 271 274 235 247 251 264 277 278 277 274 269 266 262 259 265 269 272 277 276 269 269 271 270 268 265 261 257 253 251 248 243 239 237 235 232 230 228 227 225 223 223 223 223 222 222 222 222 223 223 221 221 222 222 223 224 224 224 224 224 223 221 220 220 220 220 220 218 214 212 211 209 208 207 207 206 205 204 202 203 204 204
229 217 244 253 254 264 281 287 291 171 185 220 226 239 257 260 275 282 279 278 277 278 279 278 279 277 273 270 266 261 264 274 284 290 286 279 272 270 270 270 268 264 259 255 251 248 245 240 238 236 233 231 229 228 226 224 224 224 224 225 225 226 226 226 225 223 222 222 223 224 225 225 224 224 224 223 222 221 221 221 221 221 218 214 212 211 209 209 209 208 207 205 204 203 202 202 202
252 242 256 271 249 246 257 265 297 300 244 247 247 247 255 259 262 271 277 279 279 278 275 275 275 274 277 276 270 271 276 281 295 308 294 282 274 272 274 274 273 267 259 257 253 248 246 242 240 237 232 231 230 228 227 225 223 223 224 226 228 228 227 226 225 224 223 223 224 225 226 225 224 224 224 223 221 221 221 220 221 221 218 214 212 210 209 209 209 209 208 206 203 201 199 199 201
279 295 282 286 276 255 257 262 269 291 280 271 268 268 273 274 264 262 274 281 280 275 273 272 270 273 279 274 272 286 306 312 331 312 290 285 289 294 293 286 280 274 264 259 253 248 246 242 239 237 233 231 228 225 224 221 218 218 220 222 225 226 226 226 225 225 225 225 225 226 226 225 224 224 224 223 221 220 220 220 220 219 217 213 211 210 210 211 210 209 208 206 203 199 197 198 200
321 295 276 274 277 273 269 273 272 260 278 272 267 275 282 283 278 270 271 275 272 270 271 274 277 278 274 272 284 337 3 348 313 284 285 295 309 319 316 309 299 287 278 267 256 251 249 243 238 237 235 229 223 220 219 216 212 212 215 218 221 223 223 225 226 226 227 227 226 226 225 225 224 224 223 222 221 220 218 218 218 217 216 213 213 213 212 213 212 210 207 206 203 200 199 199 197
277 267 276 271 268 273 271 276 283 283 269 273 270 279 284 285 282 273 262 262 264 268 276 284 282 276 272 282 335 29 11 325 288 288 307 325 340 354 353 347 336 318 303 290 274 263 255 246 240 237 235 229 224 221 219 218 215 214 216 218 220 220 222 224 224 226 228 228 227 226 225 225 224 223 223 221 220 219 217 217 217 217 216 214 213 213 214 214 212 210 206 203 202 200 201 200 192
263 259 269 270 270 282 276 264 276 307 265 285 294 290 289 282 274 270 264 259 260 267 272 272 270 269 281 356 31 14 344 314 312 331 353 4 12 17 17 13 6 359 347 326 305 286 267 252 244 237 233 232 229 226 225 223 221 221 221 221 223 221 224 227 226 228 230 228 228 228 227 226 225 224 223 222 220 218 217 217 217 217 216 214 212 212 213 213 212 210 207 204 199 196 201 203 195
247 245 258 268 269 279 274 246 270 3 266 288 303 293 285 273 262 264 271 257 256 263 257 255 261 276 338 36 31 347 331 320 347 11 17 18 22 25 25 22 19 18 14 0 342 317 289 265 254 242 235 235 233 231 230 227 225 226 226 226 229 227 230 233 232 232 232 231 230 229 228 227 226 225 224 223 221 220 219 218 218 217 216 215 213 212 212 212 211 210 208 204 199 194 196 203 200
237 229 246 265 264 262 267 278 329 310 270 283 311 296 285 271 234 82 351 235 256 258 248 254 315 55 61 66 63 286 332 357 15 21 18 16 17 24 27 24 21 22 17 8 2 346 321 295 273 255 242 238 237 236 234 230 227 227 226 227 231 233 235 235 233 231 230 230 230 229 229 228 227 227 226 225 223 222 220 219 219 218 217 215 213 213 213 213 212 212 209 206 204 201 196 198 201
258 217 222 250 264 268 273 290 322 308 272 59 342 315 302 173 105 356 338 303 274 258 240 285 44 63 73 83 90 348 17 22 33 24 18 17 14 21 29 26 22 18 14 14 14 10 357 340 309 275 253 243 241 240 236 230 225 222 218 217 220 224 229 228 226 224 224 228 229 229 231 230 229 228 227 227 226 223 222 221 220 219 218 216 214 213 214 214 213 213 211 209 209 207 199 194 199
272 215 213 242 259 267 273 290 301 290 290 44 4 308 287 262 245 289 298 270 263 259 249 28 61 66 64 72 61 57 54 43 42 34 27 25 18 18 27 30 25 16 15 19 21 19 15 9 355 318 272 249 247 243 236 229 222 218 216 216 216 218 223 227 225 225 226 229 229 229 231 231 230 228 227 228 226 225 224 222 222 221 219 218 216 214 214 215 214 215 215 213 212 209 203 197 199
267 121 201 238 251 257 256 271 260 272 316 301 192 229 271 284 251 236 248 244 258 271 300 18 75 80 76 82 66 52 46 33 30 32 30 28 21 17 25 32 30 22 21 24 24 23 20 16 11 355 319 274 261 252 238 230 223 218 220 221 222 224 227 230 229 228 228 228 229 230 231 231 230 229 228 228 227 226 225 224 223 222 220 219 218 216 216 216 216 217 217 215 213 210 207 205 203
285 70 57 135 229 256 221 245 257 275 317 281 185 184 259 284 244 194 246 249 263 297 7 40 69 76 68 76 65 46 37 29 22 26 31 32 25 19 25 31 30 25 25 26 26 26 26 21 18 10 353 321 287 270 248 238 232 225 225 226 229 233 234 236 236 232 228 228 231 231 231 231 232 230 229 228 228 227 226 226 225 223 222 221 220 219 219 219 219 218 217 215 213 212 212 211 208
43 101 89 82 93 76 173 251 276 274 280 261 171 174 254 292 240 166 255 270 293 347 50 69 79 75 42 51 55 44 38 32 25 27 31 32 28 25 26 29 27 24 25 28 29 29 29 26 21 14 6 353 326 299 266 251 243 235 233 233 235 239 239 239 239 236 230 229 230 228 227 229 231 231 229 228 228 228 228 227 226 225 224 223 223 222 221 221 221 221 220 219 216 215 215 214 211
61 137 81 54 170 117 171 250 302 270 269 230 173 184 219 284 303 135 253 313 320 359 59 76 86 77 44 44 48 42 40 39 33 30 30 29 29 29 29 29 26 23 25 29 31 30 30 29 24 16 11 6 355 337 302 271 256 246 243 242 242 244 244 244 244 242 236 230 229 227 224 225 229 232 231 229 230 229 229 228 227 226 225 224 225 224 223 223 223 223 222 222 220 218 218 217 215
197 203 316 287 243 212 205 175 150 251 266 194 160 190 211 238 252 62 338 309 254 258 22 53 77 72 49 48 49 42 40 42 38 31 28 26 25 26 29 30 28 25 25 25 27 29 30 28 25 18 16 16 12 2 340 305 279 263 256 255 256 255 252 252 252 250 243 235 233 230 223 224 228 231 231 230 232 231 229 228 227 227 226 226 226 226 225 225 225 224 223 222 222 221 221 220 218
196 206 259 275 283 270 237 223 209 244 264 56 35 344 229 243 262 279 282 305 27 33 22 55 75 69 53 51 48 41 37 36 35 30 28 28 24 22 24 28 28 27 26 23 23 26 27 27 25 20 18 21 24 18 3 337 309 289 274 268 268 268 264 260 257 254 250 244 239 234 229 229 229 230 231 232 234 233 230 228 227 227 227 227 227 227 227 226 226 225 224 223 223 224 223 223 222
186 199 201 232 276 284 273 274 268 267 295 64 47 334 251 262 266 255 262 317 47 56 66 72 72 67 60 54 48 44 42 36 31 27 28 30 27 21 22 25 28 27 25 23 23 24 26 27 25 22 21 25 29 26 16 360 336 314 298 284 276 274 272 270 266 261 256 249 242 238 236 236 236 238 239 239 238 237 233 230 229 229 229 228 228 228 228 228 227 226 225 225 225 226 225 225 225
189 196 182 245 263 270 277 276 271 281 294 135 149 182 243 255 60 245 293 53 57 67 75 74 73 72 68 57 45 40 41 38 33 30 29 29 27 25 24 24 26 27 26 25 22 21 23 25 24 25 25 27 30 28 19 8 354 336 319 302 286 276 269 268 269 267 263 255 247 243 242 242 244 245 246 246 243 241 238 235 232 231 231 230 230 229 229 228 228 227 227 227 227 227 227 226 226
208 97 129 255 229 187 251 261 260 292 297 254 194 218 250 257 296 267 116 79 73 72 68 67 66 60 55 46 36 31 32 32 33 34 31 27 27 27 27 26 25 25 26 27 24 22 22 23 23 26 27 30 33 31 23 14 5 352 339 325 307 291 278 271 267 265 264 261 256 252 249 249 251 251 251 251 249 246 243 240 237 235 233 232 231 231 230 230 229 228 227 227 228 228 228 228 227
145 163 203 217 152 159 231 258 261 324 280 263 227 251 262 265 281 265 119 98 84 72 60 58 53 47 50 45 32 29 30 30 30 33 30 26 25 25 27 28 27 25 25 25 24 23 24 25 26 29 31 33 33 31 28 23 18 10 357 343 328 314 300 289 280 273 267 263 263 263 259 255 256 257 255 255 254 251 248 244 241 238 236 234 233 232 232 231 231 230 229 229 229 229 229 228 228
141 186 207 153 62 126 217 251 202 208 252 262 256 264 270 266 267 107 109 102 86 79 71 67 58 51 56 50 36 32 28 27 28 29 26 24 22 22 24 26 26 26 25 24 22 23 27 29 31 33 33 33 31 31 30 28 27 24 16 4 347 329 314 302 294 287 279 270 268 268 266 263 263 264 262 260 259 254 251 247 244 241 239 237 235 234 234 232 231 231 230 230 231 230 229 229 229
185 258 235 107 251 229 188 203 217 223 243 251 242 258 269 258 240 163 126 87 73 82 79 68 60 56 58 54 47 38 28 25 27 25 21 19 18 19 22 22 21 21 21 20 20 25 31 34 34 35 34 32 30 31 33 33 33 31 26 20 10 356 340 326 315 304 293 282 276 274 272 272 271 270 268 266 263 257 252 250 246 244 241 240 238 236 235 233 231 231 230 230 231 230 229 229 229
90 278 270 69 257 252 212 181 194 224 247 252 235 244 254 253 244 164 110 70 64 71 69 63 58 62 64 61 55 43 37 35 27 24 19 15 17 18 20 19 19 22 23 22 22 28 33 35 36 36 35 34 32 31 32 33 35 33 31 29 26 21 12 2 352 335 313 298 292 285 281 280 278 275 272 269 265 259 256 253 251 247 244 242 240 238 236 234 232 231 231 230 230 230 229 229 229
185 210 220 207 204 260 266 231 189 214 245 248 236 236 233 17 56 104 98 76 70 71 74 73 64 66 64 55 51 37 32 28 13 16 11 359 2 4 12 22 27 32 31 29 29 30 32 33 34 35 34 33 32 31 30 31 32 31 30 30 29 27 24 21 15 2 341 325 315 307 300 295 288 281 277 272 267 263 261 257 254 251 247 244 242 239 237 234 232 232 231 231 231 230 229 228 228
198 209 212 217 202 188 245 237 195 204 238 236 245 248 221 44 40 101 110 104 103 97 95 87 65 59 57 47 41 32 26 23 10 3 359 352 345 334 342 8 17 22 23 22 24 25 26 27 28 30 30 28 28 28 28 29 30 28 27 28 28 27 26 25 23 16 2 348 337 327 318 309 298 288 282 277 271 266 264 261 257 253 251 248 245 242 239 236 234 232 231 231 231 229 229 229 227